GFSFLT1_sfc_thetae_174.txt.gz
Theta_e
350 351 350 348 347 344 341 340 340 338 337 336 337 338 338 338 328 331 332 329 342 342 343 341 339 338 337 336 335 333 334 333 333
349 352 350 347 345 344 342 340 342 340 339 337 338 339 339 332 327 328 331 330 340 339 340 340 339 339 337 335 333 333 332 334 333
348 348 349 346 344 343 344 343 341 342 340 339 338 341 338 333 328 327 329 334 341 341 339 338 337 336 336 336 334 333 333 334 332
346 349 348 347 345 345 345 344 343 343 343 341 341 338 337 332 329 328 330 337 342 342 341 338 336 336 335 334 333 333 334 334 333
343 343 346 347 347 347 346 345 344 345 345 344 342 338 334 329 328 327 326 339 343 343 341 339 338 337 336 335 335 335 335 335 334
340 339 340 344 346 346 346 346 345 344 341 342 340 337 330 325 327 326 331 337 344 344 343 340 339 338 338 337 336 336 336 335 335
334 336 336 341 343 343 345 345 343 340 337 335 337 335 332 327 325 326 333 337 344 344 346 343 341 340 339 338 338 337 337 336 336
316 327 333 335 334 336 340 339 339 338 335 334 332 332 331 330 328 328 333 337 341 344 346 345 342 341 340 339 339 338 337 337 336
304 307 310 320 328 332 333 335 337 337 337 335 334 332 331 331 330 328 330 335 339 343 346 345 344 342 341 340 339 339 338 337 337
304 304 305 306 312 319 324 328 332 335 336 337 336 335 333 331 331 329 326 330 339 345 347 343 343 343 341 341 341 341 339 338 338
304 305 305 305 306 308 311 317 323 327 331 334 336 335 335 334 332 332 329 329 336 342 346 344 343 342 343 342 343 343 341 341 339
305 305 305 305 306 307 308 308 313 319 324 326 329 333 334 334 333 334 327 327 330 337 343 344 345 345 343 342 345 344 343 341 341
306 306 306 307 307 307 306 306 307 309 313 317 321 325 328 330 332 332 334 329 328 331 337 340 343 344 345 342 342 345 344 342 341
306 306 306 307 307 306 306 305 305 305 307 309 311 316 322 323 327 328 330 332 328 328 330 332 335 338 342 342 341 344 344 342 341
306 306 305 306 306 305 305 304 305 304 305 308 308 308 312 317 322 325 328 329 331 328 326 327 330 330 337 341 342 341 343 341 340
305 304 305 305 305 304 305 305 304 304 305 303 306 306 309 312 317 320 325 326 328 329 326 326 327 328 330 334 338 338 339 341 341
306 304 304 304 304 305 305 305 304 305 306 302 302 299 303 306 309 314 320 322 325 325 327 327 324 325 326 327 330 333 336 338 338
305 305 304 304 306 306 305 305 305 304 307 306 303 300 298 304 307 311 314 317 318 322 325 325 325 325 326 326 326 326 330 333 336
305 306 306 305 306 306 306 309 306 305 303 306 309 307 307 302 301 305 308 314 318 320 323 326 327 326 326 324 323 324 327 331 335
306 306 306 306 308 310 308 305 304 304 303 303 304 305 305 307 305 301 303 308 315 318 320 323 325 325 324 325 324 323 327 332 333

GFSFLT1_sfc_thetae_177.txt.gz
Theta_e
350 350 349 348 347 343 340 339 339 338 337 336 337 338 338 336 326 327 329 329 340 343 342 340 339 338 337 336 334 333 332 333 331
348 350 350 347 344 344 342 341 341 340 339 338 337 339 340 332 326 326 327 329 341 341 342 341 339 339 337 334 333 332 331 333 331
348 348 348 347 345 344 343 343 342 342 341 340 339 339 338 334 327 326 327 333 341 341 340 340 339 339 337 335 334 332 333 334 331
344 346 347 347 347 346 345 344 344 343 343 343 342 340 336 331 329 328 326 334 340 343 341 339 338 337 336 336 335 334 334 333 333
343 342 342 346 347 346 346 345 344 345 345 344 342 339 337 327 326 328 326 334 342 344 343 340 338 338 337 336 335 335 335 336 334
335 337 339 341 344 346 346 345 345 343 341 342 341 338 333 328 325 325 330 335 339 344 344 342 340 339 338 337 337 337 337 336 336
317 324 333 336 338 340 342 344 343 339 337 335 336 335 333 330 329 326 332 335 339 341 345 344 342 341 340 339 338 338 337 337 336
306 308 312 316 324 328 334 335 336 338 337 335 333 332 331 332 331 331 334 336 337 340 345 345 343 342 341 340 339 338 338 337 337
302 303 304 307 310 314 319 325 329 330 332 334 335 335 334 334 332 331 331 334 338 339 342 346 345 344 342 342 340 340 339 337 337
303 302 303 304 306 307 308 311 316 320 326 330 333 334 336 334 333 332 329 332 334 338 340 343 344 344 344 342 342 342 340 339 339
304 304 304 304 305 305 306 307 309 313 318 322 326 329 332 335 335 332 332 331 333 334 339 340 345 345 344 344 343 343 343 341 341
305 305 305 305 305 306 306 306 307 307 310 312 316 321 323 328 330 333 334 332 329 331 336 340 344 345 343 343 345 344 344 343 342
305 305 305 306 306 306 305 305 305 305 305 306 309 313 317 320 322 326 329 333 332 330 332 335 341 343 344 341 343 344 344 343 342
304 304 304 305 305 305 304 304 303 303 304 306 307 308 310 314 319 319 321 323 329 329 329 330 331 334 341 341 342 343 342 342 343
304 304 304 305 304 304 304 303 304 303 303 306 306 306 307 309 311 315 321 321 324 327 327 327 328 329 332 337 342 342 342 341 340
304 304 304 304 303 303 305 304 304 303 304 302 305 304 306 307 308 311 314 319 322 323 325 326 326 327 330 333 336 338 339 339 339
304 303 303 303 303 304 304 304 303 303 305 302 301 299 301 304 308 308 313 313 317 319 322 324 324 324 325 326 330 332 334 336 337
304 304 304 304 304 304 304 304 304 302 303 304 302 300 300 302 305 306 308 313 313 318 318 321 325 324 322 324 325 326 329 332 334
305 305 305 305 305 304 305 308 304 302 301 302 307 304 303 298 297 303 305 312 314 315 318 317 320 323 324 324 322 323 326 330 333
305 306 306 305 306 306 308 304 303 303 302 301 301 302 302 302 300 297 301 304 310 314 316 317 316 319 323 324 322 323 327 331 334

GFSFLT1_sfc_thetae_180.txt.gz
Theta_e
349 349 349 347 346 342 340 339 340 338 337 336 336 337 338 335 325 326 328 331 337 342 342 339 337 337 337 336 334 333 332 332 330
348 348 349 347 344 344 343 342 341 341 340 339 338 338 340 331 325 325 325 328 339 342 342 341 339 338 337 336 333 331 331 332 330
345 346 347 347 346 345 344 344 343 342 343 342 340 340 337 333 327 326 325 331 339 343 342 341 340 340 339 335 335 333 334 335 332
345 345 345 345 346 347 346 344 344 344 344 344 343 341 338 329 328 329 326 331 340 342 342 341 340 339 339 337 336 335 334 333 334
335 337 340 344 345 346 346 345 345 345 344 344 343 340 338 331 326 326 326 334 337 342 344 342 341 339 338 338 337 336 335 335 335
315 321 327 331 333 337 342 344 343 342 341 341 340 338 334 330 328 325 330 335 338 340 342 344 342 341 340 339 338 337 337 336 336
311 312 318 319 322 324 330 334 338 338 339 337 337 337 336 333 331 329 334 337 338 338 340 345 343 342 343 341 339 338 338 336 336
304 305 306 307 312 313 317 321 326 326 330 334 336 336 334 334 334 334 335 338 340 339 338 343 344 343 343 342 341 340 337 337 336
302 302 303 304 306 306 307 309 311 315 320 323 326 329 334 335 334 333 333 336 340 341 341 341 343 344 343 342 343 342 341 339 339
302 302 303 303 304 305 305 306 307 309 313 317 321 325 326 330 332 331 330 333 336 338 340 342 341 343 343 343 344 343 343 341 340
304 304 304 304 304 304 305 305 305 306 308 310 312 315 320 324 327 329 330 332 335 336 339 341 342 342 342 344 344 343 343 343 342
304 304 304 304 304 305 305 305 305 305 307 306 308 310 312 316 319 323 325 328 330 333 335 336 339 341 342 343 344 343 342 342 342
304 304 303 304 304 304 303 303 303 303 304 303 305 306 309 311 314 318 320 322 325 329 332 332 335 337 341 342 341 343 342 342 342
303 303 303 303 304 304 303 303 302 302 303 305 305 305 306 307 312 312 314 316 319 321 326 329 330 333 336 339 341 343 341 341 341
303 303 303 303 303 303 304 303 304 303 303 306 305 305 305 306 307 309 314 315 318 318 321 323 325 328 331 335 338 339 338 339 339
303 302 302 303 302 302 304 304 302 302 303 301 302 303 304 305 306 308 309 313 313 317 319 322 325 326 329 331 334 336 337 338 338
304 302 302 303 302 303 303 303 302 302 303 300 298 297 300 303 305 305 307 308 314 314 316 317 320 323 325 325 329 332 336 338 337
304 303 303 303 303 303 302 303 302 300 301 301 300 295 294 299 302 303 305 306 309 313 316 316 317 318 321 324 323 325 329 334 337
305 305 304 304 304 303 304 307 303 301 299 301 305 302 301 299 297 301 303 306 307 310 313 315 315 315 317 320 319 322 325 330 334
305 305 304 304 305 305 306 303 301 301 300 300 300 300 300 300 301 299 301 304 305 309 312 312 315 314 316 318 321 321 326 330 333

GFSFLT1_sfc_thetae_186.txt.gz
Theta_e
347 347 348 345 343 343 341 340 340 340 339 337 337 337 338 338 338 338 337 338 336 339 342 341 339 339 339 336 335 333 332 331 330
347 347 346 347 346 345 345 344 343 343 342 342 340 339 339 335 335 336 338 338 338 341 342 342 341 340 340 339 336 334 333 333 331
343 341 343 346 347 347 346 346 345 345 345 344 344 343 340 334 332 334 336 340 337 341 342 343 343 342 341 340 337 335 334 335 335
326 327 330 336 336 340 343 345 346 346 345 346 345 343 341 340 338 333 332 338 337 339 342 343 344 343 342 341 339 338 336 336 337
319 322 325 325 327 328 332 336 340 342 343 344 343 340 339 340 341 341 339 335 336 338 340 343 344 344 343 342 341 339 338 337 337
318 318 318 321 322 323 325 327 329 330 334 341 340 338 342 341 340 340 341 338 340 340 338 339 342 344 344 343 342 341 340 339 338
315 316 316 317 317 319 319 320 322 324 322 325 333 338 341 341 340 340 341 341 344 344 343 341 340 341 344 344 342 341 341 340 339
318 318 318 319 317 317 319 319 318 319 318 319 320 323 327 332 336 339 338 339 340 342 343 342 342 342 342 344 343 342 342 342 341
317 318 318 318 318 318 318 318 317 317 317 317 317 317 318 320 324 328 335 336 337 339 339 341 341 342 342 341 344 343 343 342 341
315 315 316 317 317 317 317 317 317 317 317 317 317 317 317 317 318 319 324 329 330 330 332 333 336 340 341 342 343 344 343 343 342
313 313 313 314 315 315 315 315 315 315 316 315 316 316 317 318 318 319 319 324 326 327 327 328 329 331 333 336 340 341 342 343 343
314 314 314 315 315 315 315 315 315 315 316 315 316 317 317 317 317 317 318 320 322 325 325 326 326 327 329 330 333 337 339 341 342
314 313 313 314 315 315 314 314 314 314 314 314 314 314 316 316 316 317 318 319 318 321 324 324 326 327 327 327 328 329 335 339 340
313 313 313 313 314 314 314 314 314 312 313 312 313 313 314 316 316 315 317 318 319 320 322 323 323 325 327 329 331 329 330 334 338
313 313 313 313 313 314 314 313 314 313 312 311 312 314 316 318 315 315 315 317 318 319 320 322 323 325 327 329 330 331 332 331 335
313 314 314 314 313 313 313 313 312 312 313 311 311 313 316 316 314 315 316 315 316 318 319 320 322 322 324 327 329 330 330 330 331
313 313 314 314 314 314 314 313 311 311 312 309 309 306 310 312 314 314 315 315 317 317 318 318 320 321 321 322 324 326 327 329 331
314 314 315 315 315 314 314 313 311 308 311 312 309 305 304 306 312 312 314 315 316 316 317 317 319 320 320 322 323 322 321 326 331
313 314 314 314 315 314 314 313 312 311 308 311 312 311 308 302 303 310 312 314 314 316 316 317 319 320 321 320 319 318 321 324 329
312 313 313 313 314 314 314 313 311 312 309 309 309 308 307 308 303 301 306 311 314 315 316 317 319 320 321 322 319 317 324 326 329

GFSFLT1_sfc_thetae_189.txt.gz
Theta_e
348 347 348 347 345 345 344 343 342 341 341 340 339 338 338 340 335 336 336 336 338 337 342 343 341 338 338 335 334 333 332 332 331
347 346 346 347 347 347 347 346 346 345 344 344 343 341 341 334 330 333 335 337 338 338 341 343 342 341 340 339 337 336 334 333 331
332 332 335 340 341 344 346 346 346 346 346 346 345 344 341 336 334 334 334 340 336 339 341 342 344 343 342 341 340 337 335 334 334
322 323 327 328 331 332 334 337 342 345 346 345 345 343 341 340 339 339 336 338 339 339 340 341 344 344 344 343 341 340 338 336 336
320 324 323 323 325 325 326 329 331 333 335 340 342 341 339 340 340 341 341 337 335 336 337 339 342 344 345 344 343 341 340 339 337
317 320 319 320 321 322 322 324 324 326 328 330 340 337 340 340 341 342 342 342 342 342 343 341 339 341 344 345 343 342 342 340 339
317 318 320 320 320 321 322 322 324 325 318 319 333 326 328 334 339 340 341 342 344 344 344 343 343 342 342 344 344 343 342 342 341
319 320 320 320 320 319 320 319 318 317 317 316 316 317 317 319 323 331 340 340 341 342 341 341 342 343 343 342 342 344 344 342 342
316 316 317 319 319 317 319 318 318 318 318 317 316 316 316 317 318 321 336 339 337 335 336 337 337 339 341 341 342 342 343 343 342
313 313 313 314 315 314 314 315 315 314 315 316 316 317 317 317 318 318 324 330 328 326 327 329 330 332 334 336 340 341 341 341 342
313 314 314 315 315 315 314 314 314 314 314 314 314 314 315 315 316 318 319 325 326 324 324 326 327 328 329 331 332 337 339 340 341
315 315 315 315 316 315 316 315 316 315 315 315 316 316 316 316 316 317 318 319 322 326 324 324 325 325 326 327 327 329 333 336 339
314 313 314 315 314 315 315 314 314 314 313 313 313 313 315 315 315 316 317 318 318 322 326 323 324 325 326 327 328 329 330 332 332
313 314 314 314 314 314 314 314 313 313 313 313 313 314 314 315 315 315 315 317 319 319 322 323 324 324 327 328 329 330 330 331 333
314 314 314 315 314 314 314 313 313 313 312 311 312 313 315 316 315 315 315 316 317 317 319 321 321 324 327 326 326 329 329 330 330
314 314 314 314 313 313 313 313 312 312 313 311 312 313 315 315 315 317 316 316 317 318 318 319 319 320 324 326 325 326 328 329 329
313 313 313 314 313 313 313 312 311 312 312 308 309 307 310 313 314 315 314 315 317 317 317 318 318 319 320 321 324 323 325 328 329
313 314 313 313 312 312 312 312 310 309 311 312 308 304 303 305 312 312 313 314 315 317 317 317 318 319 319 321 321 318 321 330 330
313 313 312 312 312 311 312 312 311 309 308 311 311 310 307 301 301 308 311 312 313 316 316 317 318 320 320 319 315 317 322 326 329
313 312 312 312 311 311 312 312 310 310 309 309 308 308 307 306 304 300 304 309 312 315 316 317 319 319 319 317 315 315 320 324 326

GFSFLT1_sfc_thetae_195.txt.gz
Theta_e
345 344 344 346 346 347 347 348 347 346 345 344 344 344 343 340 331 327 326 331 342 342 340 340 343 341 340 338 336 334 333 333 331
333 332 333 334 337 339 340 341 343 345 346 347 347 346 344 338 332 330 328 325 340 343 340 339 341 344 343 341 340 338 337 336 334
324 324 327 327 328 328 330 333 335 337 338 340 344 345 342 339 335 334 332 335 342 343 341 340 341 342 344 344 343 341 340 337 336
323 322 324 323 323 324 325 326 327 328 328 330 334 337 339 336 336 337 336 340 342 342 344 340 340 341 343 344 345 343 342 340 338
325 325 319 323 324 324 325 325 325 326 326 328 330 329 330 330 332 336 336 342 345 344 344 340 339 339 340 343 344 344 344 342 340
314 320 323 325 324 326 326 327 327 330 328 325 327 329 323 325 331 335 339 343 345 344 343 343 343 342 342 342 342 342 343 343 342
316 316 323 323 324 325 324 324 327 320 311 310 316 311 317 312 310 321 334 339 341 342 341 341 340 340 340 340 341 341 341 342 343
305 305 306 306 313 308 310 309 310 307 307 307 307 308 307 307 308 312 327 331 332 336 336 335 333 332 334 336 338 339 340 341 341
303 304 305 306 306 306 306 306 307 307 307 306 306 306 306 308 309 311 322 330 327 328 326 326 326 327 328 331 332 335 335 337 339
305 306 307 307 308 307 307 307 308 308 308 309 308 308 308 308 309 308 318 325 325 324 324 324 325 326 328 328 328 329 330 331 333
306 306 307 307 307 307 307 307 307 307 308 308 309 308 308 308 308 309 310 321 324 323 323 323 324 324 326 326 327 327 327 328 329
306 306 306 307 307 307 307 308 308 307 308 307 308 308 307 307 308 309 309 311 318 323 323 323 322 323 324 324 326 327 327 329 329
306 306 306 307 307 307 307 307 306 306 306 305 306 306 307 308 309 310 309 309 311 315 322 322 322 324 325 325 326 326 327 327 328
306 306 307 307 307 307 307 306 305 305 307 306 306 306 306 308 311 308 309 310 310 310 317 320 321 323 324 324 326 327 327 326 327
306 307 307 307 307 306 306 305 306 305 305 308 307 305 306 308 308 307 310 310 311 311 311 311 313 321 326 327 327 327 326 326 327
307 306 307 307 306 305 306 306 305 304 305 302 304 304 307 307 306 307 307 308 309 311 311 310 310 314 321 321 322 324 326 326 327
307 306 306 306 306 306 306 308 307 307 304 301 300 298 302 303 305 305 306 305 307 309 311 311 312 314 314 315 317 319 322 324 326
307 307 306 306 309 308 308 308 309 305 304 303 301 296 294 298 302 303 303 305 305 306 308 313 315 314 312 312 312 315 318 322 324
308 308 307 306 309 308 308 310 310 307 304 303 306 307 304 295 294 300 301 304 305 305 309 313 314 313 311 312 313 314 316 319 322
307 307 306 306 306 308 308 308 308 308 306 305 306 304 304 304 301 297 298 302 304 304 307 313 313 313 311 308 310 313 315 317 319